Regional Weather Roundup
Issued by NWS

Home | Current Version | Previous Version | Text Only | Print | Product List | Glossary Off
Versions: 1 2 3 4 5 6 7 8 9 10 11 12 13 14 15 16 17 18 19 20 21 22 23 24 25 26 27 28 29 30 31 32 33 34 35 36 37 38 39 40 41 42 43 44 45 46 47 48 49 50

000
ASUS43 KBIS 291010
RWRND

NORTH DAKOTA REGIONAL WEATHER ROUNDUP
NATIONAL WEATHER SERVICE BISMARCK ND
500 AM CDT WED MAR 29 2017

NOTE: "FAIR" INDICATES FEW OR NO CLOUDS BELOW 12,000 FEET WITH NO
SIGNIFICANT WEATHER AND/OR OBSTRUCTIONS TO VISIBILITY.


NDZ001>003-009>011-017-291100-
NORTHWEST NORTH DAKOTA

CITY           SKY/WX    TMP DP  RH WIND       PRES   REMARKS
WILLISTON      FOG       33  33 100 CALM      30.07S VSB<1/4
MINOT          CLOUDY    41  38  89 S6        30.06F
MINOT AFB      CLOUDY    37  37  98 S5        30.06S
$$

NDZ018>021-031>035-040>046-291100-
SOUTHWEST NORTH DAKOTA

CITY           SKY/WX    TMP DP  RH WIND       PRES   REMARKS
BISMARCK       FAIR      38  36  92 E6        30.14F
DICKINSON      MOCLDY    38  37  97 S8        30.06F
GARRISON         N/A     37  35  92 SW5       30.09S
HETTINGER ARPT FOG       36  35  96 SE6       30.11F VSB 1/4
$$

NDZ004>008-012>016-024-026-027-054-291100-
NORTHEAST NORTH DAKOTA

CITY           SKY/WX    TMP DP  RH WIND       PRES   REMARKS
GRAND FORKS    PTCLDY    33  32  96 CALM      30.18S
GRND FRKS AFB  PTCLDY    30  30 100 CALM      30.18S
DEVILS LAKE    MOCLDY    33  32  96 SE7       30.16S
$$

NDZ022-023-025-028>030-036>039-047>053-291100-
SOUTHEAST NORTH DAKOTA

CITY           SKY/WX    TMP DP  RH WIND       PRES   REMARKS
FARGO          PTCLDY    36  32  85 NE3       30.17F
JAMESTOWN      FOG       35  34  96 CALM      30.15F VSB 1/4
$$




USA.gov is the U.S. government's official web portal to all federal, state and local government web resources and services.